Location: *
(57.8420°S, 159.8600°W)
Time: 05:24:21
(UTC+00:00)

SL-16 R/B - Pass Details

Date: 18 May 2021
Orbit: 843 x 845 km, 71.0° (Epoch: 20 June)

Event Time Altitude Azimuth Distance (km) Brightness Sun altitude
Rises 04:03:01 0° 290° (WNW) 3,424 7.5 -12.3°
Reaches altitude 10° 04:05:39 10° 281° (WNW) 2,493 6.2 -12.6°
Maximum altitude 04:10:58 38° 214° (SSW) 1,299 3.3 -13.3°
Enters shadow 04:16:12 11° 146° (SE) 2,469 4.2 -13.9°
